Date,TemperatureHighF,TemperatureAvgF,TemperatureLowF,DewpointHighF,DewpointAvgF,DewpointLowF,HumidityHigh,HumidityAvg,HumidityLow,PressureMaxIn,PressureMinIn,WindSpeedMaxMPH,WindSpeedAvgMPH,GustSpeedMaxMPH,PrecipitationSumIn
2013-1-1,34.9,26.2,8.5,28.3,16.9,5.2,86,68,56,30.00,29.77,16,2,16,0.00
2013-1-2,26.0,13.7,2.2,19.0,7.9,-4.6,89,78,59,30.28,29.97,8,1,9,0.00
2013-1-3,14.8,4.8,-8.4,10.3,-1.5,-11.9,85,75,59,30.29,30.00,4,0,4,0.00
2013-1-4,37.2,27.0,14.8,25.8,18.9,10.1,88,72,56,30.00,29.86,10,1,12,0.02
2013-1-5,37.0,31.4,22.3,26.7,21.9,15.3,85,69,41,30.26,29.93,14,2,15,0.00
2013-1-6,39.3,31.0,22.7,31.2,26.2,18.6,91,82,66,30.20,29.92,5,0,5,0.01
2013-1-7,36.3,26.1,14.1,32.4,21.3,11.9,91,82,68,30.41,30.00,7,1,8,0.01
2013-1-8,38.6,21.8,7.8,27.6,17.3,5.0,91,84,62,30.40,30.29,3,0,3,0.01
2013-1-9,43.5,28.2,14.0,33.7,23.0,11.9,92,82,54,30.39,29.99,18,1,22,0.05
2013-1-10,42.7,35.0,25.9,33.3,25.7,22.3,87,70,49,30.58,30.17,11,2,13,0.02
2013-1-11,37.6,29.6,23.0,36.5,27.0,20.5,96,90,79,30.56,30.12,2,0,3,0.01
2013-1-12,42.9,38.5,34.2,41.8,37.5,33.2,96,96,95,30.17,30.09,7,0,7,0.00
2013-1-13,44.9,40.6,35.3,44.0,39.7,34.3,97,97,96,30.15,29.94,4,0,7,0.01
2013-1-14,45.0,40.9,33.6,44.2,34.9,25.2,97,80,55,30.34,29.86,12,2,14,0.11
2013-1-15,35.7,32.5,29.6,26.3,23.8,21.2,79,70,56,30.37,30.24,6,1,6,0.00
2013-1-16,31.7,29.9,28.2,29.4,27.4,23.1,95,90,76,30.24,29.84,1,0,1,0.00
2013-1-17,35.8,29.2,22.1,31.7,22.1,9.0,96,76,52,30.18,29.86,15,1,15,0.03
2013-1-18,22.2,16.3,8.7,12.2,5.1,-4.0,79,62,40,30.42,30.12,10,2,12,0.00
2013-1-19,42.0,33.7,22.3,28.2,21.3,11.4,67,60,51,30.28,29.77,9,1,9,0.09
2013-1-20,41.7,34.5,21.4,33.6,22.6,11.2,84,62,41,30.04,29.51,20,4,24,0.02
2013-1-21,25.4,21.4,18.3,19.8,12.5,5.8,91,69,52,30.09,29.81,7,1,7,0.00
2013-1-22,18.2,14.1,8.1,15.2,4.8,-2.0,91,67,44,30.15,29.80,13,2,19,0.00
2013-1-23,9.8,4.9,-1.9,3.7,-5.6,-8.6,83,61,49,30.24,30.14,10,2,12,0.00
2013-1-24,14.3,3.9,-6.8,-0.7,-5.4,-10.7,84,66,43,30.41,30.19,14,2,17,0.00
2013-1-25,16.2,10.0,2.5,9.2,-0.8,-7.2,87,62,45,30.44,30.11,10,1,13,0.00
2013-1-26,20.5,12.4,5.1,6.9,4.3,-1.2,89,72,41,30.36,30.10,8,1,8,0.00
2013-1-27,24.7,15.7,6.6,8.0,4.3,1.5,88,62,38,30.54,30.36,7,1,9,0.00
2013-1-28,24.3,19.6,14.0,22.8,14.3,5.7,94,80,63,30.50,29.98,3,0,3,0.00
2013-1-29,37.5,29.9,24.2,36.5,28.2,22.5,96,93,90,30.17,30.00,5,0,5,0.21
2013-1-30,55.1,47.8,37.5,54.0,46.5,36.2,97,95,91,30.02,29.30,7,1,9,0.30
2013-1-31,53.7,38.8,25.1,52.9,31.0,16.5,97,75,50,29.64,28.91,22,4,24,0.42